Total_Precipitation_Accumulation
0.17 0.20 0.22 0.25 0.24 0.23 0.27 0.34 0.40 0.50 0.60 0.82 1.14 1.58 1.79 1.89 1.91 1.93 1.84 1.64 1.42 1.42 1.54 1.49 1.44 1.39 1.31 1.19 1.02 1.02 0.90 0.66 0.46 0.47 0.43 0.31 0.20 0.15 0.13 0.11 0.11 0.11 0.10
0.12 0.11 0.13 0.15 0.14 0.14 0.17 0.26 0.33 0.42 0.55 0.82 1.13 1.48 1.83 1.91 1.92 1.92 1.87 1.75 1.64 1.64 1.67 1.82 1.87 1.81 1.83 1.76 1.50 1.49 1.39 1.06 0.75 0.82 0.98 0.73 0.49 0.26 0.18 0.17 0.15 0.14 0.14
0.11 0.09 0.08 0.09 0.10 0.11 0.12 0.18 0.24 0.38 0.66 0.99 1.30 1.49 1.78 1.90 1.95 1.89 1.90 1.94 1.89 1.79 1.80 1.89 2.00 1.99 2.01 2.03 2.01 1.86 1.83 1.58 1.16 0.94 1.04 0.94 0.80 0.59 0.28 0.21 0.23 0.22 0.21
0.14 0.12 0.09 0.07 0.08 0.09 0.11 0.14 0.20 0.39 0.73 1.07 1.33 1.56 1.91 2.01 1.94 1.97 1.98 2.01 2.03 1.99 2.03 2.03 2.10 2.10 2.07 2.10 2.14 2.01 2.00 1.98 1.60 1.29 1.02 0.83 0.77 0.72 0.53 0.34 0.28 0.29 0.25
0.15 0.12 0.10 0.09 0.10 0.10 0.13 0.19 0.33 0.51 0.76 0.97 1.23 1.57 1.81 1.93 2.06 2.01 2.00 2.01 2.05 2.05 2.07 2.12 2.24 2.22 2.13 2.09 2.24 2.21 2.17 2.05 1.92 1.70 1.49 1.30 1.05 0.72 0.69 0.66 0.48 0.37 0.29
0.16 0.16 0.15 0.15 0.16 0.18 0.24 0.33 0.48 0.63 0.83 1.00 1.19 1.38 1.63 1.77 1.92 2.02 1.94 1.93 1.96 2.03 1.92 1.86 1.97 2.01 2.01 2.00 2.11 2.24 2.30 2.21 2.19 1.98 1.62 1.47 1.29 1.03 0.94 0.80 0.65 0.56 0.38
0.26 0.30 0.31 0.34 0.41 0.44 0.47 0.55 0.65 0.75 0.86 0.95 1.04 1.10 1.27 1.43 1.49 1.63 1.72 1.82 1.84 1.88 1.88 1.77 1.75 1.72 1.67 1.70 1.79 1.86 1.90 1.98 2.10 1.96 1.69 1.57 1.33 1.18 1.14 1.00 0.82 0.68 0.43
0.43 0.53 0.61 0.69 0.76 0.75 0.74 0.80 0.85 0.84 0.82 0.87 0.93 0.95 1.01 1.09 1.15 1.18 1.23 1.38 1.55 1.59 1.65 1.63 1.56 1.56 1.60 1.60 1.65 1.66 1.66 1.64 1.68 1.70 1.70 1.68 1.49 1.30 1.16 1.10 1.13 0.96 0.75
0.71 0.81 0.91 0.92 0.93 0.90 0.85 0.86 0.88 0.86 0.84 0.84 0.83 0.79 0.77 0.81 0.90 0.92 0.98 1.03 1.12 1.15 1.22 1.30 1.33 1.36 1.42 1.47 1.57 1.63 1.63 1.55 1.50 1.57 1.63 1.56 1.46 1.37 1.22 1.12 1.08 1.08 0.97
1.06 1.19 1.27 1.17 1.10 1.09 1.13 1.01 0.92 0.85 0.82 0.82 0.81 0.75 0.70 0.72 0.74 0.75 0.82 0.80 0.81 0.81 0.86 0.97 1.09 1.21 1.32 1.41 1.48 1.51 1.58 1.58 1.53 1.56 1.65 1.67 1.62 1.57 1.46 1.31 1.20 1.07 1.02
1.43 1.52 1.53 1.43 1.23 1.10 1.09 1.03 0.92 0.81 0.71 0.70 0.75 0.74 0.67 0.67 0.69 0.67 0.64 0.60 0.62 0.66 0.75 0.79 0.89 0.99 1.09 1.26 1.43 1.47 1.49 1.49 1.46 1.42 1.47 1.57 1.63 1.68 1.65 1.58 1.43 1.26 1.17
1.30 1.34 1.30 1.29 1.18 1.08 0.99 0.95 0.84 0.71 0.65 0.69 0.71 0.72 0.63 0.58 0.60 0.58 0.58 0.52 0.50 0.53 0.60 0.69 0.82 0.93 0.96 0.97 1.09 1.16 1.18 1.19 1.24 1.23 1.21 1.28 1.36 1.46 1.56 1.59 1.53 1.44 1.29
0.98 1.07 1.13 1.04 1.00 0.92 0.87 0.94 0.94 0.83 0.81 0.84 0.89 0.81 0.68 0.63 0.62 0.56 0.56 0.52 0.51 0.54 0.58 0.67 0.78 0.82 0.82 0.84 0.81 0.84 0.91 0.95 0.96 1.00 0.98 0.99 1.07 1.19 1.29 1.38 1.40 1.44 1.42
0.78 0.84 0.92 0.88 0.89 0.83 0.80 0.89 0.93 0.95 1.02 1.10 1.06 0.88 0.76 0.68 0.62 0.56 0.50 0.49 0.52 0.55 0.60 0.72 0.79 0.79 0.73 0.77 0.77 0.75 0.74 0.74 0.72 0.75 0.77 0.80 0.80 0.85 0.97 1.13 1.29 1.40 1.44
0.56 0.55 0.55 0.56 0.63 0.63 0.60 0.64 0.71 0.82 0.98 1.05 0.94 0.79 0.67 0.57 0.51 0.53 0.49 0.48 0.52 0.54 0.59 0.64 0.73 0.77 0.75 0.75 0.77 0.71 0.62 0.60 0.63 0.60 0.52 0.54 0.59 0.58 0.61 0.68 0.93 1.13 1.26
0.33 0.31 0.28 0.28 0.33 0.33 0.35 0.39 0.47 0.62 0.84 0.93 0.80 0.63 0.56 0.53 0.48 0.47 0.42 0.40 0.41 0.43 0.48 0.52 0.67 0.79 0.72 0.81 0.76 0.62 0.53 0.52 0.55 0.52 0.47 0.47 0.50 0.44 0.37 0.38 0.54 0.77 0.93
0.23 0.24 0.22 0.20 0.20 0.20 0.23 0.30 0.36 0.50 0.60 0.62 0.57 0.47 0.41 0.39 0.38 0.37 0.37 0.38 0.40 0.42 0.46 0.49 0.59 0.69 0.80 0.74 0.56 0.54 0.51 0.53 0.55 0.55 0.58 0.54 0.50 0.56 0.44 0.38 0.39 0.44 0.52
0.21 0.21 0.21 0.20 0.21 0.22 0.23 0.32 0.37 0.39 0.44 0.52 0.50 0.43 0.38 0.35 0.35 0.34 0.35 0.43 0.43 0.41 0.45 0.49 0.50 0.58 0.69 0.60 0.45 0.46 0.43 0.53 0.60 0.62 0.66 0.67 0.64 0.60 0.62 0.56 0.57 0.52 0.45
0.13 0.13 0.13 0.12 0.12 0.12 0.11 0.13 0.17 0.22 0.27 0.30 0.35 0.34 0.29 0.30 0.33 0.33 0.39 0.42 0.42 0.46 0.47 0.49 0.51 0.56 0.59 0.53 0.43 0.43 0.49 0.63 0.65 0.60 0.67 0.70 0.64 0.68 0.70 0.73 0.79 0.72 0.58
0.03 0.03 0.03 0.03 0.03 0.02 0.03 0.04 0.05 0.06 0.09 0.10 0.14 0.18 0.19 0.23 0.28 0.37 0.43 0.41 0.39 0.45 0.46 0.45 0.43 0.45 0.46 0.50 0.40 0.48 0.59 0.64 0.65 0.64 0.69 0.83 0.74 0.70 0.67 0.65 0.74 0.76 0.64
0.00 0.00 0.00 0.01 0.01 0.01 0.01 0.02 0.02 0.02 0.02 0.02 0.04 0.07 0.11 0.17 0.25 0.32 0.31 0.32 0.35 0.39 0.40 0.43 0.42 0.42 0.48 0.58 0.58 0.62 0.61 0.64 0.70 0.78 0.84 0.79 0.82 0.62 0.57 0.55 0.51 0.58 0.57
0.00 0.00 0.00 0.00 0.00 0.00 0.00 0.00 0.00 0.00 0.00 0.00 0.01 0.02 0.04 0.07 0.12 0.20 0.23 0.26 0.30 0.31 0.31 0.32 0.33 0.37 0.47 0.54 0.56 0.56 0.58 0.64 0.64 0.70 0.71 0.68 0.73 0.55 0.45 0.39 0.41 0.42 0.40
0.00 0.00 0.00 0.00 0.00 0.00 0.00 0.00 0.00 0.00 0.00 0.00 0.00 0.00 0.01 0.02 0.06 0.12 0.17 0.21 0.27 0.29 0.27 0.26 0.28 0.32 0.36 0.42 0.44 0.44 0.43 0.44 0.47 0.46 0.54 0.55 0.50 0.43 0.35 0.36 0.37 0.36 0.37
0.00 0.00 0.00 0.00 0.00 0.00 0.00 0.00 0.00 0.00 0.00 0.00 0.00 0.00 0.01 0.01 0.03 0.06 0.13 0.21 0.24 0.23 0.23 0.25 0.27 0.31 0.34 0.33 0.34 0.37 0.38 0.35 0.37 0.37 0.38 0.37 0.35 0.35 0.35 0.35 0.34 0.34 0.37
0.00 0.00 0.00 0.00 0.00 0.00 0.00 0.00 0.00 0.00 0.00 0.00 0.00 0.00 0.00 0.01 0.02 0.02 0.06 0.13 0.15 0.14 0.18 0.23 0.27 0.31 0.34 0.30 0.27 0.27 0.33 0.38 0.43 0.47 0.40 0.35 0.33 0.34 0.40 0.40 0.35 0.35 0.37
0.00 0.00 0.00 0.00 0.00 0.00 0.00 0.00 0.00 0.00 0.00 0.00 0.00 0.00 0.00 0.01 0.01 0.02 0.03 0.05 0.05 0.07 0.08 0.09 0.13 0.13 0.13 0.13 0.13 0.16 0.21 0.28 0.34 0.47 0.51 0.52 0.56 0.57 0.56 0.51 0.40 0.33 0.30